Theta_e
295 295 295 294 295 297 297 299 297 302 304 311 315 317 319 322 323 324 325 330 334 339 346 353 354 358 359 354 356 354 356 355 358 363 363 364 363 367 368 369 370 371 371 370
292 295 295 292 295 295 295 296 299 302 303 312 314 316 318 320 323 323 325 328 331 336 341 347 354 358 360 358 358 357 358 356 359 362 364 363 364 367 369 369 370 371 370 370
288 294 293 289 293 294 296 297 296 294 302 308 309 312 315 320 323 323 325 328 331 331 337 341 346 356 357 360 360 360 361 360 362 364 364 365 366 368 368 369 371 371 370 370
289 291 282 294 299 298 296 297 299 300 301 305 308 312 315 324 333 334 335 333 337 338 339 340 343 346 354 357 363 362 361 364 363 366 365 367 368 367 368 369 369 369 371 371
286 287 290 293 295 295 294 293 301 302 304 304 307 310 312 320 336 337 339 340 342 344 344 347 343 345 354 354 363 362 363 364 365 366 366 368 367 368 369 369 369 369 371 372
290 284 281 293 297 301 299 291 302 304 305 305 306 302 310 331 337 337 340 341 343 346 347 348 349 347 345 351 356 361 364 364 368 368 368 368 369 370 372 371 370 366 368 372
289 285 290 297 298 299 286 292 304 308 309 306 306 311 318 328 331 333 338 341 345 348 347 350 353 350 351 351 354 361 364 367 369 369 370 371 372 372 372 371 366 370 368 371
288 285 282 299 298 290 298 298 296 306 311 312 319 323 321 321 323 327 330 334 341 351 352 354 355 357 357 354 359 366 366 366 369 371 367 366 372 372 372 371 370 370 370 368
291 291 299 299 297 299 297 297 298 309 317 321 319 318 317 316 320 322 322 329 334 348 353 350 356 359 359 357 368 366 367 367 368 371 370 370 370 371 366 370 361 361 360 358
287 293 295 296 296 298 299 300 305 306 310 314 313 313 313 314 314 317 319 320 325 337 353 354 358 357 359 372 369 369 367 366 368 368 368 369 365 365 361 359 359 357 356 355
288 291 291 295 298 298 301 305 305 306 308 309 312 313 313 314 314 314 316 318 320 326 334 339 347 353 358 364 367 363 366 366 364 363 362 365 368 359 361 348 345 357 353 352
286 291 293 293 297 302 302 302 305 307 306 307 310 312 315 314 315 315 315 317 317 321 325 326 330 332 336 342 365 362 361 359 359 358 360 361 352 348 309 316 305 304 305 326
291 296 295 297 297 301 303 304 305 305 306 308 312 314 315 315 315 315 315 317 318 319 322 324 325 328 334 337 349 360 358 364 359 353 358 360 359 355 350 329 304 302 305 306
299 298 294 296 294 299 300 302 305 306 307 307 309 311 312 313 316 315 315 317 318 319 319 321 321 323 330 339 339 359 362 329 359 358 359 361 360 360 356 353 348 347 310 313
298 300 298 298 298 298 300 300 299 300 301 303 307 307 309 310 310 313 317 318 319 318 317 319 318 321 326 333 336 345 360 358 358 360 359 353 355 350 346 347 346 340 334 319
299 299 298 298 298 298 298 298 296 298 300 301 302 303 305 309 310 312 313 315 313 311 314 319 317 320 326 331 337 339 347 330 337 346 345 345 345 345 342 341 339 339 335 333
299 297 298 296 297 298 297 298 298 298 299 300 300 302 303 303 304 306 308 311 312 312 311 313 313 317 325 326 329 338 343 342 333 349 348 346 341 342 345 345 339 336 333 328
302 302 301 300 298 298 299 299 299 299 299 300 301 300 300 301 301 302 303 306 307 310 311 312 312 315 320 322 323 336 339 339 337 335 335 337 337 341 339 334 330 327 325 319
303 301 302 301 302 302 300 300 299 300 299 299 298 298 299 300 301 301 304 302 303 302 304 308 309 312 316 321 320 331 339 339 335 331 327 323 331 331 328 328 326 324 326 324
304 303 303 302 303 302 301 303 301 301 301 300 299 298 298 299 301 301 301 300 300 301 305 308 310 310 313 320 320 320 332 335 335 333 333 329 321 318 318 312 320 318 320 323
305 304 303 303 302 303 302 302 301 300 302 301 299 298 298 299 300 300 298 297 300 302 304 307 308 311 312 316 319 329 330 333 330 330 327 324 321 314 312 313 313 311 311 313
303 302 303 303 302 302 304 304 302 302 302 302 301 301 299 298 298 299 299 298 300 302 303 305 309 311 312 316 318 325 327 323 322 320 317 315 314 311 306 304 303 304 305 307
304 304 303 303 302 302 303 304 303 303 301 302 302 302 301 301 300 295 294 299 301 302 303 304 305 305 305 305 308 309 306 308 310 309 307 305 303 303 300 300 298 297 296 296
304 304 303 304 304 303 301 303 303 305 305 304 304 305 304 301 301 300 299 300 301 301 301 301 301 301 300 298 297 297 299 300 299 299 297 296 298 297 296 295 294 294 294 295
305 304 305 303 302 301 303 304 303 303 304 305 305 304 306 303 301 300 299 300 300 299 299 300 300 299 297 297 296 295 295 295 296 297 296 296 295 295 295 294 293 293 293 293
305 302 302 304 302 302 302 302 301 301 302 302 302 303 305 304 302 304 301 300 300 300 299 299 298 298 298 297 297 297 297 297 296 296 295 296 296 296 295 295 295 294 295 295
304 295 303 302 303 302 301 301 301 301 301 302 302 303 304 305 303 302 301 302 301 302 302 303 301 300 300 300 300 299 298 298 296 297 297 296 296 296 295 295 296 296 296 296
Wind_Speed
19 19 13 15 13 12 17 18 23 21 22 24 15 12 10 8 9 14 16 18 17 20 17 18 19 19 20 21 21 23 22 22 22 21 21 19 19 18 17 17 16 15 14 14
22 15 17 19 18 18 19 20 22 24 27 23 22 22 24 25 13 8 9 8 9 15 15 18 19 18 20 21 20 22 21 22 20 20 19 20 19 18 18 17 17 16 15 15
20 20 19 21 21 21 22 22 21 24 24 23 25 25 27 25 18 19 13 11 8 11 15 15 17 18 19 22 20 20 19 20 19 20 20 20 20 19 19 18 16 16 16 16
16 19 23 15 18 20 23 23 22 24 25 27 28 28 27 23 8 12 10 2 7 11 12 12 16 20 19 20 20 19 20 19 20 19 20 19 19 20 19 17 18 16 16 16
13 15 19 22 15 20 8 16 17 22 26 28 30 31 28 32 4 7 8 9 11 13 14 13 13 14 17 18 20 20 20 20 21 20 20 19 20 20 18 17 16 16 16 17
12 18 23 21 9 12 8 20 20 27 30 33 29 21 20 9 1 7 9 11 13 14 14 15 16 15 16 22 20 22 21 23 19 19 19 21 20 19 17 16 17 15 17 16
17 18 16 19 9 7 10 14 24 36 34 33 25 22 14 3 4 6 9 10 13 15 16 17 17 18 17 19 22 22 19 17 18 19 19 19 17 16 16 17 16 15 16 14
12 13 19 11 4 6 12 19 21 40 18 19 19 4 4 3 5 6 9 11 12 15 16 17 18 16 18 18 19 15 17 18 18 18 16 15 17 15 16 15 14 14 14 14
5 2 8 2 9 14 14 18 27 24 12 12 6 4 5 8 8 9 11 12 13 17 15 11 13 15 16 17 15 17 17 18 17 17 16 14 16 15 13 14 14 14 14 14
3 5 13 16 14 14 15 19 11 15 9 3 10 5 11 10 9 11 13 14 14 15 11 13 10 11 14 13 14 15 16 17 15 16 15 14 14 14 13 14 14 13 13 13
6 8 16 8 8 12 15 8 8 4 4 6 7 13 10 9 10 12 11 12 12 11 12 16 16 17 6 11 13 15 15 15 15 15 15 14 10 10 13 4 4 13 12 12
4 11 11 10 10 14 8 11 7 3 7 8 9 8 10 7 10 8 12 10 12 13 14 14 13 14 16 17 6 14 15 13 13 15 14 12 11 7 13 14 13 11 11 5
3 11 10 12 14 17 7 7 7 6 3 6 6 10 7 9 7 7 10 10 11 13 12 12 12 14 14 14 14 6 13 15 14 13 14 12 13 12 11 5 8 15 12 14
10 7 9 14 9 14 16 15 10 11 12 14 14 10 13 9 7 8 10 8 11 12 12 14 14 15 16 14 14 7 9 2 13 8 10 10 6 7 8 9 7 5 11 10
13 10 8 6 10 13 12 13 13 13 13 12 11 11 11 9 11 11 8 8 8 10 12 12 15 14 14 14 13 10 2 6 8 9 11 14 11 10 8 7 6 6 5 3
13 15 15 15 12 12 14 14 14 14 13 12 11 12 12 10 9 12 11 10 10 11 12 14 15 15 15 12 11 9 8 10 10 5 7 9 7 9 5 8 6 6 7 6
15 16 16 16 16 14 15 13 11 9 9 11 13 12 12 11 13 13 14 15 13 10 12 14 16 16 14 12 13 5 4 8 6 5 6 2 7 9 6 8 6 5 9 8
11 12 14 15 14 14 17 17 14 14 14 13 12 11 12 13 11 11 11 13 12 12 14 13 14 15 11 12 13 7 5 7 7 7 6 6 6 5 9 6 7 7 7 7
8 10 11 11 13 13 14 15 16 14 15 14 12 13 10 11 12 13 10 12 13 13 15 15 21 16 10 12 13 10 5 3 7 9 7 7 7 7 8 7 6 8 9 5
7 8 10 10 9 10 11 14 14 14 11 11 11 12 15 15 14 13 12 12 12 12 15 15 15 13 13 11 12 9 7 6 8 8 8 11 8 8 8 8 8 8 6 6
6 9 7 9 9 10 9 10 12 13 14 15 13 13 12 14 11 9 13 11 16 18 16 17 12 8 7 9 8 4 4 3 5 6 8 9 11 10 9 8 6 6 6 8
4 3 7 8 9 7 11 10 10 10 12 14 11 11 10 11 13 13 14 12 10 23 12 10 10 12 8 11 7 6 7 9 6 8 7 9 8 9 9 10 9 7 8 7
6 7 5 6 6 9 9 8 10 9 7 9 10 12 11 8 11 10 10 14 10 15 10 10 17 22 22 12 12 13 13 13 11 11 10 9 9 11 7 9 10 11 7 8
6 4 6 5 5 7 8 8 7 7 6 5 10 12 11 7 10 10 9 16 20 18 16 16 20 26 23 12 13 14 12 12 11 11 13 15 11 10 9 10 10 9 10 9
3 6 3 6 6 5 4 6 6 8 6 11 12 7 11 12 10 11 9 11 20 15 12 24 26 25 13 13 13 14 13 12 11 12 12 12 11 10 10 9 10 9 10 9
5 5 4 3 5 6 8 8 7 7 8 8 9 8 9 11 9 11 10 12 11 12 11 11 11 13 13 13 13 13 12 12 13 12 11 11 11 9 9 9 9 7 10 8
1 8 4 6 3 6 7 6 6 7 8 8 9 8 7 6 10 9 8 10 10 9 9 6 8 10 10 10 10 11 10 10 10 8 8 8 8 8 8 7 7 7 9 8
Wind_Direction
270 287 281 276 276 256 255 262 262 253 249 262 280 314 267 250 229 249 241 219 216 202 190 183 192 190 190 201 199 199 193 199 197 197 199 197 199 197 201 203 204 208 210 210
285 265 265 258 247 249 256 259 262 275 278 287 306 305 299 296 267 195 258 282 262 197 221 194 188 193 189 196 201 202 194 198 194 191 195 197 196 196 197 203 205 205 210 210
257 256 247 246 250 250 252 250 250 250 258 273 276 275 279 280 244 261 242 220 243 247 220 219 200 192 201 194 202 198 203 193 196 188 195 197 195 193 197 200 202 207 209 210
261 267 257 253 260 260 260 256 254 256 260 260 264 269 271 291 336 320 330 295 277 268 254 239 219 200 201 195 196 208 201 193 196 192 195 195 197 198 197 196 202 203 208 211
238 250 259 261 262 268 337 283 300 286 279 249 253 262 270 271 203 289 294 281 265 264 266 269 250 227 187 204 188 206 199 203 194 197 192 195 198 200 198 198 199 203 207 210
237 236 250 259 265 34 328 266 255 259 250 252 241 245 251 315 123 260 271 271 271 268 260 248 242 244 208 193 198 198 206 200 197 197 196 197 197 197 198 200 202 204 208 209
230 240 256 260 349 341 258 280 316 304 240 229 232 244 261 351 291 292 287 289 283 269 256 246 242 225 232 200 202 202 200 194 194 199 199 198 197 196 198 202 205 207 210 210
237 247 248 24 308 246 324 316 314 298 207 220 234 90 42 48 342 1 337 330 322 295 259 240 227 225 215 227 200 185 187 194 194 196 201 195 197 194 198 202 208 205 212 207
281 291 2 4 302 275 285 281 283 281 265 239 145 140 85 57 23 15 1 347 350 315 292 237 210 220 208 225 176 176 183 188 192 189 192 199 192 195 192 198 210 213 206 220
335 8 311 300 295 263 287 286 271 274 332 179 114 126 74 52 42 21 14 6 356 347 9 15 330 195 209 185 169 171 178 186 183 185 187 203 186 196 203 199 204 211 218 212
258 284 301 263 259 278 285 300 285 345 15 46 89 69 63 56 45 24 9 14 0 3 24 24 21 16 354 169 172 177 183 186 179 186 185 191 190 204 199 69 216 216 213 216
297 313 301 295 352 315 294 327 294 328 43 10 29 34 70 65 52 12 16 15 2 15 29 20 19 17 8 351 216 189 188 183 180 187 170 185 158 126 25 113 117 109 95 56
321 326 359 344 346 355 28 343 351 21 347 2 2 44 52 63 70 40 25 15 13 17 19 18 22 16 7 355 323 210 194 187 177 193 160 179 172 173 152 114 85 82 85 56
12 356 19 10 359 5 23 14 11 22 34 18 27 20 34 28 42 45 31 17 20 28 18 16 15 11 357 351 354 241 227 182 177 143 136 130 147 153 150 168 157 130 77 91
44 54 72 41 28 25 32 18 17 32 25 26 21 24 12 22 22 14 23 20 21 28 21 15 14 1 355 350 360 351 161 146 178 137 160 155 151 160 175 183 188 148 152 82
33 35 28 41 52 49 38 29 26 26 20 22 30 24 13 6 18 18 12 9 23 26 14 9 12 350 340 352 346 358 53 22 34 126 144 130 184 133 174 207 203 181 127 107
20 23 28 23 30 48 58 36 28 29 36 29 31 24 25 29 22 12 3 14 10 25 14 3 1 347 343 355 336 358 93 60 61 77 53 147 179 143 129 137 108 21 63 92
24 30 28 29 24 21 33 56 36 29 25 32 32 27 31 31 25 11 8 7 6 11 13 358 353 336 342 357 350 334 30 81 70 55 64 43 57 104 98 101 101 96 91 66
28 23 37 38 23 27 29 42 54 39 33 28 17 20 25 20 27 17 2 14 10 9 356 346 340 336 341 356 1 333 34 59 87 87 73 54 51 57 64 77 125 96 87 120
8 20 20 36 32 37 30 44 38 54 52 44 44 29 22 23 26 13 358 20 5 357 342 343 339 342 347 331 350 311 10 26 70 71 90 98 92 70 58 64 69 76 83 85
2 11 12 27 27 17 56 48 43 39 43 43 43 40 33 26 17 10 18 14 359 351 348 344 348 338 325 303 310 228 85 66 63 96 103 102 99 93 77 71 62 60 66 73
52 26 14 13 27 6 25 68 64 56 47 47 41 48 42 37 21 18 26 13 349 352 352 354 352 9 3 314 270 11 84 85 86 77 54 69 79 99 98 100 84 59 67 68
29 37 27 20 29 31 31 16 88 76 61 50 42 46 50 52 48 17 9 4 9 12 17 23 30 44 44 39 40 53 54 56 55 63 60 64 68 65 64 87 91 89 66 67
20 349 11 357 12 42 32 355 33 95 126 96 57 37 49 48 58 40 12 14 25 35 42 46 48 52 54 48 49 49 49 60 62 66 62 51 63 87 90 85 80 86 92 86
356 327 354 359 331 22 36 16 29 31 65 117 106 58 55 72 65 56 26 26 39 46 48 50 53 56 56 59 62 62 59 59 61 61 64 68 71 71 65 64 70 68 60 64
285 321 32 47 327 4 14 4 23 41 21 28 78 72 49 79 82 83 72 45 47 54 49 49 49 55 59 60 63 65 67 67 65 64 65 63 67 61 65 70 71 69 84 87
305 326 87 309 14 59 31 359 355 38 34 23 50 69 65 67 97 84 77 89 79 66 67 78 81 85 81 78 74 72 72 71 64 71 73 81 74 70 67 63 63 62 65 62